Regional Weather Roundup
Issued by NWS

Home | Current Version | Previous Version | Text Only | Print | Product List | Glossary Off
Versions: 1 2 3 4 5 6 7 8 9 10 11 12 13 14 15 16 17 18 19 20 21 22 23 24 25 26 27 28 29 30 31 32 33 34 35 36 37 38 39 40 41 42 43 44 45 46 47 48 49 50

000
ASUS45 KPSR 281000
RWRAZ

PRELIMINARY ARIZONA REGIONAL HOURLY WEATHER ROUNDUP
NATIONAL WEATHER SERVICE PHOENIX AZ
300 AM MST MON JUL 28 2014

NOTE: FAIR INDICATES FEW OR NO CLOUDS BELOW 12,000 FEET WITH NO
SIGNIFICANT WEATHER AND/OR OBSTRUCTIONS TO VISIBILITY.

AZZ001>003-036-281100-
NORTHWEST ARIZONA

CITY           SKY/WX    TMP DP  RH WIND       PRES   REMARKS
KINGMAN        CLOUDY    79  56  45 SE14      30.13S
$$

AZZ004>008-015-016-018-281100-
NORTH CENTRAL ARIZONA

CITY           SKY/WX    TMP DP  RH WIND       PRES   REMARKS
GRAND CANYON   CLOUDY    59  56  89 CALM      30.39R
WILLIAMS       CLOUDY    57  55  94 SE8       30.45F
PRESCOTT       CLOUDY    69  53  56 CALM      30.27F
FLAGSTAFF      CLOUDY    60  52  74 CALM      30.43F
PAYSON         CLOUDY    68  54  60 N5        30.29F
PAGE           MOCLDY    76  55  48 SW3       30.23F
$$

AZZ009>014-017-281100-
NORTHEAST ARIZONA

CITY           SKY/WX    TMP DP  RH WIND       PRES   REMARKS
WINSLOW        NOT AVBL
SAINT JOHNS    CLOUDY    67  54  63 S9        30.35R
WINDOW ROCK    PTCLDY    62  51  67 E6        30.44S
$$

AZZ023-281100-
GREATER PHOENIX AREA

CITY           SKY/WX    TMP DP  RH WIND       PRES   REMARKS
PHOENIX        CLOUDY    87  61  41 SE8       29.98R
BUCKEYE          N/A     86  57  37 E6        29.97S
LUKE AFB       NOT AVBL
DEER VALLEY    MOCLDY    84  63  49 SE5       30.00R
SCOTTSDALE     MOCLDY    84  63  49 S5        30.02R
MESA-GATEWAY     N/A    N/A N/A N/A MISG        N/A
$$

AZZ027-028-281100-
SOUTHWEST MARICOPA COUNTY AND PINAL COUNTY

CITY           SKY/WX    TMP DP  RH WIND       PRES   REMARKS
CASA GRANDE    CLOUDY    84  61  45 E8        30.01F
$$

AZZ503-504-507>509-281100-
SOUTHEAST ARIZONA

CITY           SKY/WX    TMP DP  RH WIND       PRES   REMARKS
TUCSON         CLOUDY    77  64  64 E10       30.11S
DAVIS-MONTHAN  CLOUDY    74  66  76 SE13      30.10S
NOGALES        CLOUDY    70  61  73 S5        30.19R
SIERRA VISTA   MOCLDY    66  64  94 SE6       30.25S
SAFFORD        CLOUDY    70  66  87 CALM      30.17R
$$

AZZ020-021-025-026-031-281100-
SOUTHWEST ARIZONA

CITY           SKY/WX    TMP DP  RH WIND       PRES   REMARKS
YUMA           CLEAR     87  65  47 CALM      29.90S
$$

CAZ031-033-041-043-047-048-061-281100-
SOUTHERN CALIFORNIA

CITY           SKY/WX    TMP DP  RH WIND       PRES   REMARKS
DOWNTOWN L.A.  CLOUDY    69  64  84 W3        30.02R
L.A. AIRPORT   CLOUDY    68  65  90 W5        30.03R
SAN DIEGO      CLOUDY    71  67  87 NW3       30.04R
BURBANK        CLOUDY    70  60  70 CALM      30.03R
ONTARIO        CLOUDY    76  50  40 W7        30.03S
RIVERSIDE      CLOUDY    76  54  46 CALM      30.03R
PALM SPRINGS   PTCLDY    91  59  33 NW6       29.94S
EL CENTRO NAS  CLEAR     87  61  41 SW8       29.87S
IMPERIAL       CLEAR     86  61  42 SW5       29.87S
BLYTHE           N/A    N/A N/A N/A MISG      29.90S
$$

NVZ020-UTZ003-281100-
SOUTHERN NEVADA-UTAH

CITY           SKY/WX    TMP DP  RH WIND       PRES   REMARKS
LAS VEGAS      CLOUDY    81  62  52 S8        30.01R
SALT LAKE CITY MOCLDY    79  47  32 NW5       30.13R
$$

NMZ009-TXZ055-281100-
NEW MEXICO-WEST TEXAS

CITY           SKY/WX    TMP DP  RH WIND       PRES   REMARKS
ALBUQUERQUE    PTCLDY    70  55  59 N10       30.35R
EL PASO        CLOUDY    77  58  51 N14       30.17R
$$


........................KEY........................
SKY/WX - SKY CONDITION/WEATHER
TMP    - TEMPERATURE IN FAHRENHEIT
DP     - DEW POINT IN FAHRENHEIT
RH     - RELATIVE HUMIDITY IN PERCENT
WIND   - DIRECTION AND SPEED IN MILES PER HOUR (MPH)
VRB    - VARIABLE WIND DIRECTION
PRES   - MEAN SEA LEVEL PRESSURE IN INCHES OF MERCURY
         F - FALLING PRESSURE   R - RISING PRESSURE
         S - STEADY PRESSURE
VSB    - VISIBILITY IN MILES
HX     - HEAT INDEX IN FAHRENHEIT
WCI    - WIND CHILL INDEX IN FAHRENHEIT
TC     - TEMPERATURE IN CELSIUS WHICH IS ALSO KNOWN AS
         TEMPERATURE IN CENTIGRADE
AFB    - AIR FORCE BASE
         LUKE AFB IS LUKE AIR FORCE BASE
         DAVIS-MONTHAN IS DAVIS-MONTHAN AIR FORCE BASE
NAS    - NAVAL AIR STATION
         EL CENTRO NAS IS EL CENTRO NAVAL AIR STATION
N/A    - NOT AVAILABLE



USA.gov is the U.S. government's official web portal to all federal, state and local government web resources and services.